Hourly Data Report for July 02, 2021

ALGONQUIN PARK EAST GATE
ONTARIO
Current Station Operator: ECCC - MSC

45°32'00.000" N
78°16'00.000" W
397.00 m
6080192
71581
TNK

Download Data

Hourly Data (July 2021)
Hourly Data Report for July 2, 2021
TIME
LST
Temp Definition
°C
Dew Point Definition
°C
Rel Hum Definition
%
Precip. Amount Definition
mm

Wind Dir Definition
10's deg

Wind Spd Definition
km/h
Visibility Definition
km
Stn Press Definition
kPa
Hmdx Definition


Wind Chill Definition


Weather Definition


00:00 13.6 13.1 97 0.0   0   96.61     LegendNANA
01:00 13.4 12.9 97 0.0 16 1   96.61     LegendNANA
02:00 13.1 12.6 97 0.0 0 1   96.57     LegendNANA
03:00 12.6 12.1 97 0.0 10 1   96.56     LegendNANA
04:00 13.1 12.7 97 0.0 5 1   96.58     LegendNANA
05:00 12.9 12.2 96 0.0   0   96.60     LegendNANA
06:00 14.2 13.3 94 0.0 0 1   96.64     LegendNANA
07:00 15.9 13.2 84 0.0 2 3   96.64     LegendNANA
08:00 17.5 13.1 75 0.0 2 5   96.65     LegendNANA
09:00 19.5 13.8 70 0.0 5 5   96.65     LegendNANA
10:00 20.1 13.7 67 0.0 4 6   96.63     LegendNANA
11:00 20.1 13.0 63 0.0 3 6   96.63     LegendNANA
12:00 20.6 13.6 64 0.0 2 6   96.59     LegendNANA
13:00 21.5 13.8 62 0.0 6 5   96.54 25   LegendNANA
14:00 21.3 12.4 57 0.0 3 6   96.58     LegendNANA
15:00 22.4 11.5 50 0.0 3 4   96.54     LegendNANA
16:00 16.9 14.1 84 0.6 10 3   96.58     LegendNANA
17:00 17.2 15.4 90 0.7 2 2   96.56     LegendNANA
18:00 17.2 15.9 92 0.3 31 2   96.52     LegendNANA
19:00 17.1 15.8 92 0.0   0   96.55     LegendNANA
20:00 16.3 15.6 96 0.0   0   96.59     LegendNANA
21:00 16.0 15.5 96 0.0 35 1   96.61     LegendNANA
22:00 15.4 14.8 97 0.3   0   96.59     LegendNANA
23:00 14.7 14.2 97 0.0   0   96.57     LegendNANA

Notes on Data Quality.

Legend

  • E = Estimated
  • M = Missing
  • NA = Not Available*
  • [empty] = Indicates an unobserved value
Date modified: